STARLINK-4720 (53800 NORAD) Tracking and Keplerian Element Data

This shows tracking and keplerian element data for the satellite.

Feedback or suggestion? Click here.




ElementValue
Catalog53800
NameSTARLINK-4720
Epoch Orbit1113
Epoch Day325.33334491
Epoch Year2022
RAAN274.7227
Inclination53.217
Eccentricity0.0001075
Argument of Perigee88.5282
Mean Anonmoly214.7051
Mean Motion15.57813925
Decay Rate-0.01129817
L11 53800U 22111AD 22325.33334491 -.01129817 00000+0 -16495-1 0 9993
L22 53800 53.2170 274.7227 0001075 88.5282 214.7051 15.57813925 11135



Live tracking and technical data element details for STARLINK-4720 (NORAD 53800). STARLINK-4720 can be tracked NOW for your location showing map with azimuth and elevation plus other details from your city location.







IsCatalogInMostPopularTable: catalog: 53800, numindb: -1

Insert: records affected: 1


GetName: 53800 STARLINK-4720

Hit Count: inserted at: Thu, 08 Dec 2022 08:53:40 GMT